{"data":{"norad_id":66763,"intl_designator":"2025-276DB","name":"HYDROGNSS-2","alt_names":[],"object_type":"PAYLOAD","status":"ACTIVE","operator":null,"country":"ESA","launch_date":"2025-11-28","launch_site_code":"AFWTR","launch_vehicle":null,"mission":null,"orbit_class":"UNKNOWN","rcs_meters":null,"size_class":null,"mass_kg":null,"dimensions":null,"purposes":[],"wikipedia_slug":null,"has_3d_model":false,"image_url":null,"decayed_at":null,"tle_current":{"epoch":"2026-09-20T08:30:58.979520Z","epoch_age_seconds":130400,"freshness":"FRESH","line1":"1 66763U 25276DB  26263.35484930  .00001747  00000+0  10566-3 0  9994","line2":"2 66763  97.4118 332.9939 0011899  33.8262 326.3726 15.11873842 44726","mean_motion":15.11873842,"eccentricity":0.0011899,"inclination_deg":97.4118,"raan_deg":332.9939,"arg_perigee_deg":33.8262,"mean_anomaly_deg":326.3726,"bstar":0.00010566,"rev_number":4472,"period_min":95.246042361251,"perigee_km":522.26508803372,"apogee_km":538.70622823555,"semimajor_km":6908.6226581346,"source":"CELESTRAK","updated_at":"2026-09-21T09:00:16.183449Z"}}}